EST,Max TemperatureF,Mean TemperatureF,Min TemperatureF,Max Dew PointF,MeanDew PointF,Min DewpointF,Max Humidity, Mean Humidity, Min Humidity, Max Sea Level PressureIn, Mean Sea Level PressureIn, Min Sea Level PressureIn, Max VisibilityMiles, Mean VisibilityMiles, Min VisibilityMiles, Max Wind SpeedMPH, Mean Wind SpeedMPH, Max Gust SpeedMPH,PrecipitationIn, CloudCover, Events, WindDirDegrees
2013-11-1,91,84,78,77,74,72,89,76,50,29.91,29.86,29.83,14,7,5,13,6,,0.00,3,Rain-Thunderstorm,316
2013-11-2,86,82,78,75,74,72,84,76,64,29.89,29.84,29.79,16,8,6,10,7,,0.01,4,Rain-Thunderstorm,22
2013-11-3,89,83,77,75,74,73,89,77,60,29.86,29.81,29.77,16,8,5,12,8,,0.00,1,Thunderstorm,313
2013-11-4,88,83,78,79,76,73,89,77,65,29.86,29.80,29.74,12,7,4,9,6,,0.00,3,Rain-Thunderstorm,224
2013-11-5,90,85,80,79,76,73,84,77,64,29.86,29.81,29.77,15,7,6,23,8,,0.00,3,Rain-Thunderstorm,103
2013-11-6,90,84,77,79,76,68,95,81,45,29.89,29.84,29.80,19,6,0,15,8,,2.40,1,Rain-Thunderstorm,41
2013-11-7,88,82,77,79,76,73,94,79,62,29.91,29.84,29.80,14,8,6,10,6,,0.00,2,Rain-Thunderstorm,43
2013-11-8,88,82,77,79,75,73,89,76,64,29.92,29.86,29.80,16,8,6,18,7,,0.00,1,Rain,99
2013-11-9,90,84,77,79,76,73,89,75,60,29.97,29.90,29.83,19,8,6,24,7,,0.00,1,,52
2013-11-10,89,84,78,77,75,72,89,76,58,29.99,29.92,29.86,16,8,6,25,8,,0.00,3,,3
2013-11-11,93,85,77,77,74,72,89,72,51,29.99,29.92,29.86,19,8,6,21,8,,0.00,1,,48
2013-11-12,91,83,75,77,73,70,89,69,45,29.96,29.89,29.82,15,8,6,23,8,,0.00,1,,21
2013-11-13,92,86,79,76,74,72,79,69,43,29.94,29.89,29.83,14,8,6,24,10,,0.00,1,Rain-Thunderstorm,17
2013-11-14,92,85,78,78,74,72,91,72,51,29.96,29.91,29.83,19,8,6,22,8,,0.00,1,Thunderstorm,359
2013-11-15,89,84,80,77,75,73,84,73,60,29.96,29.90,29.83,14,8,6,23,9,,0.00,1,,113
2013-11-16,91,84,77,77,74,71,89,71,52,29.95,29.90,29.83,17,8,6,17,8,,0.00,1,,4
2013-11-17,89,83,77,77,74,71,94,71,46,29.91,29.86,29.80,15,8,6,9,7,,0.00,1,,272
2013-11-18,88,83,78,78,75,73,89,76,65,29.89,29.82,29.74,15,8,6,12,5,,0.00,2,Rain-Thunderstorm,203
2013-11-19,88,82,75,76,73,71,89,71,57,29.87,29.81,29.74,18,8,6,10,5,,0.00,1,,202
2013-11-20,88,82,75,75,73,70,84,72,55,29.96,29.88,29.83,15,8,6,20,8,,0.00,2,Thunderstorm,107
2013-11-21,89,82,75,78,75,72,89,75,58,30.00,29.94,29.92,17,8,6,23,8,,0.00,2,Rain,48
2013-11-22,90,84,77,75,73,72,83,73,57,29.98,29.91,29.83,16,8,6,18,7,,0.00,2,Thunderstorm,324
2013-11-23,88,82,75,75,73,71,89,73,59,29.92,29.87,29.80,14,8,6,21,7,,0.00,1,Thunderstorm,15
2013-11-24,88,82,76,75,73,72,89,75,55,29.94,29.89,29.83,15,8,4,29,8,,0.31,2,Rain-Thunderstorm,8
2013-11-25,88,82,75,85,73,70,89,73,60,29.98,29.91,29.86,16,8,6,20,8,,0.00,1,Thunderstorm,57
2013-11-26,89,82,75,77,73,70,94,72,55,29.96,29.90,29.86,16,8,6,25,10,,0.00,2,,100
2013-11-27,88,83,78,75,73,72,79,69,54,29.96,29.89,29.83,16,8,6,23,13,,0.00,1,,125
2013-11-28,88,82,75,75,73,70,89,71,57,29.99,29.94,29.89,15,8,6,17,6,,0.00,1,,312
2013-11-29,89,82,75,76,72,70,83,69,50,30.01,29.95,29.89,16,8,6,15,7,,0.00,1,,349
2013-11-30,88,81,74,73,71,68,78,68,51,29.99,29.92,29.86,16,8,6,16,9,,0.00,1,Thunderstorm,307